Weather History for Cheraw, SC

Change the Weather History Date:

Thursday, January 31, 2013

  Actual Average (KFLO) Record (KFLO)
Temperature  
Mean Temperature 44 °F 46 °F  
Max Temperature 51 °F 57 °F 85 °F (1975)
Min Temperature 37 °F 35 °F 13 °F (1966)
Degree Days  
Heating Degree Days 21 19  
Month to date heating degree days 622  
Since 1 July heating degree days 1602  
Cooling Degree Days 0 0  
Month to date cooling degree days 2  
Year to date cooling degree days 2  
Moisture  
Dew Point 29 °F    
Average Humidity 55    
Maximum Humidity 94    
Minimum Humidity 28    
Precipitation  
Precipitation 0.04 in 0.10 in 0.67 in (1948)
Month to date precipitation 3.23  
Year to date precipitation 3.23  
Sea Level Pressure  
Sea Level Pressure 29.89 in    
Wind  
Wind Speed 26 mph (WSW)    
Max Wind Speed 46 mph    
Max Gust Speed 77 mph    
Visibility 10 miles    
Events Rain    
T = Trace of Precipitation, MM = Missing Value Source: NWS Daily Summary

Daily Weather History Graph

Daily Weather History Graph

Search for Another Location

Airport:

Trip Planner

Search our weather history database for the weather conditions in past years. The results will help you decide how hot, cold, wet, or windy it might be!

Date:

Astronomy

Jan. 31, 2013 Rise Set
Actual Time 7:18 AM EST 5:48 PM EST
Civil Twilight 6:52 AM EST 6:14 PM EST
Nautical Twilight 6:21 AM EST 6:45 PM EST
Astronomical Twilight 5:52 AM EST 7:14 PM EST
Moon 10:33 PM EST (1/31) 9:31 AM EST (1/31)
Length of Visible Light 11h 22m
Length of Day
10h 29m
Waning Gibbous, 80% of the Moon is Illuminated
Jan 31
Waning Gibbous
Feb 3
Last Quarter
Feb 10
New
Feb 17
First Quarter
Feb 25
Full

Hourly Weather History & Observations

Time (EST) Temp. Windchill Dew Point Humidity Pressure Visibility Wind Dir Wind Speed Gust Speed Precip Events Conditions
12:15 AM 51.8 °F - 48.2 °F 88% 29.64 in 8.0 mi WSW 29.9 mph 47.2 mph N/A Rain Heavy Rain
12:35 AM 51.8 °F - 48.2 °F 88% 29.63 in 10.0 mi SW 23.0 mph 35.7 mph 0.04 in Rain Light Rain
12:55 AM 50.0 °F - 48.2 °F 94% 29.62 in 10.0 mi SW 24.2 mph 32.2 mph 0.04 in   Overcast
1:15 AM 51.8 °F - 48.2 °F 88% 29.62 in 10.0 mi SW 19.6 mph 29.9 mph N/A   Overcast
1:55 AM 51.8 °F - 46.4 °F 82% 29.63 in 10.0 mi SW 31.1 mph 51.8 mph N/A   Overcast
2:15 AM 51.8 °F - 46.4 °F 82% 29.63 in 10.0 mi SW 31.1 mph 49.5 mph N/A   Mostly Cloudy
2:35 AM 51.8 °F - 46.4 °F 82% 29.64 in 10.0 mi WSW 35.7 mph 55.2 mph N/A   Mostly Cloudy
2:55 AM 51.8 °F - 44.6 °F 76% 29.64 in 10.0 mi West 40.3 mph 64.4 mph N/A   Mostly Cloudy
3:15 AM 51.8 °F - 44.6 °F 76% 29.65 in 10.0 mi WSW 41.4 mph 59.8 mph N/A   Scattered Clouds
3:35 AM 50.0 °F - 42.8 °F 76% 29.66 in 10.0 mi WSW 40.3 mph 63.3 mph N/A   Partly Cloudy
3:55 AM 50.0 °F - 41.0 °F 71% 29.67 in 10.0 mi WSW 34.5 mph 54.1 mph N/A   Clear
4:15 AM 48.2 °F - 39.2 °F 71% 29.69 in 10.0 mi WSW 25.3 mph 61.0 mph N/A   Scattered Clouds
4:35 AM 48.2 °F - 35.6 °F 62% 29.71 in 10.0 mi West 46.0 mph 77.1 mph N/A   Mostly Cloudy
4:55 AM 46.4 °F 36.7 °F 33.8 °F 62% 29.72 in 10.0 mi WSW 33.4 mph 55.2 mph N/A   Scattered Clouds
5:15 AM 46.4 °F 36.7 °F 33.8 °F 62% 29.72 in 10.0 mi WSW 33.4 mph 57.5 mph N/A   Clear
5:35 AM 44.6 °F 36.4 °F 32.0 °F 61% 29.74 in 10.0 mi WSW 20.7 mph 50.6 mph N/A   Clear
5:55 AM 44.6 °F 35.7 °F 32.0 °F 61% 29.75 in 10.0 mi WSW 24.2 mph 41.4 mph N/A   Clear
6:15 AM 44.6 °F 34.9 °F 32.0 °F 61% 29.77 in 10.0 mi West 28.8 mph 44.9 mph N/A   Clear
6:35 AM 42.8 °F 33.1 °F 32.0 °F 66% 29.79 in 10.0 mi West 25.3 mph 36.8 mph N/A   Clear
6:55 AM 42.8 °F 34.5 °F 32.0 °F 66% 29.80 in 10.0 mi West 18.4 mph 49.5 mph N/A   Clear
7:15 AM 42.8 °F 33.1 °F 32.0 °F 66% 29.82 in 10.0 mi WSW 25.3 mph 38.0 mph N/A   Clear
7:35 AM 42.8 °F 33.1 °F 32.0 °F 66% 29.85 in 10.0 mi West 25.3 mph 49.5 mph N/A   Clear
7:55 AM 42.8 °F 32.7 °F 32.0 °F 66% 29.85 in 10.0 mi WSW 27.6 mph 46.0 mph N/A   Clear
8:15 AM 42.8 °F 32.9 °F 32.0 °F 66% 29.87 in 10.0 mi West 26.5 mph 43.7 mph N/A   Clear
8:35 AM 44.6 °F 35.5 °F 32.0 °F 61% 29.88 in 10.0 mi West 25.3 mph 46.0 mph N/A   Clear
8:55 AM 44.6 °F 35.5 °F 30.2 °F 57% 29.90 in 10.0 mi West 25.3 mph 42.6 mph N/A   Clear
9:15 AM 44.6 °F 35.7 °F 30.2 °F 57% 29.92 in 10.0 mi West 24.2 mph 55.2 mph N/A   Clear
9:35 AM 44.6 °F 34.7 °F 28.4 °F 53% 29.92 in 10.0 mi West 29.9 mph 46.0 mph N/A   Clear
9:55 AM 44.6 °F 35.5 °F 28.4 °F 53% 29.93 in 10.0 mi West 25.3 mph 46.0 mph N/A   Clear
10:15 AM 46.4 °F 37.5 °F 28.4 °F 50% 29.94 in 10.0 mi WNW 27.6 mph 44.9 mph N/A   Clear
10:35 AM 46.4 °F 37.9 °F 28.4 °F 50% 29.94 in 10.0 mi WNW 25.3 mph 36.8 mph N/A   Clear
10:55 AM 46.4 °F 37.4 °F 26.6 °F 46% 29.95 in 10.0 mi West 28.8 mph 41.4 mph N/A   Clear
11:15 AM 48.2 °F - 26.6 °F 43% 29.94 in 10.0 mi WNW 31.1 mph 42.6 mph N/A   Clear
11:35 AM 48.2 °F - 24.8 °F 40% 29.93 in 10.0 mi WNW 24.2 mph 36.8 mph N/A   Clear
11:55 AM 48.2 °F - 23.0 °F 37% 29.93 in 10.0 mi West 28.8 mph 42.6 mph N/A   Clear
12:15 PM 50.0 °F - 24.8 °F 37% 29.93 in 10.0 mi West 26.5 mph 38.0 mph N/A   Clear
12:35 PM 50.0 °F - 23.0 °F 35% 29.93 in 10.0 mi West 24.2 mph 35.7 mph N/A   Clear
12:55 PM 51.8 °F - 23.0 °F 33% 29.92 in 10.0 mi West 27.6 mph 40.3 mph N/A   Clear
1:15 PM 51.8 °F - 21.2 °F 30% 29.92 in 10.0 mi West 31.1 mph 43.7 mph N/A   Clear
1:35 PM 51.8 °F - 21.2 °F 30% 29.92 in 10.0 mi West 27.6 mph 40.3 mph N/A   Clear
1:55 PM 51.8 °F - 21.2 °F 30% 29.92 in 10.0 mi WSW 34.5 mph 47.2 mph N/A   Clear
2:15 PM 51.8 °F - 19.4 °F 28% 29.92 in 10.0 mi West 25.3 mph 43.7 mph N/A   Clear
2:35 PM 51.8 °F - 21.2 °F 30% 29.92 in 10.0 mi West 24.2 mph 47.2 mph N/A   Clear
2:55 PM 51.8 °F - 21.2 °F 30% 29.93 in 10.0 mi West 20.7 mph 38.0 mph N/A   Clear
3:15 PM 51.8 °F - 19.4 °F 28% 29.94 in 10.0 mi West 31.1 mph 48.3 mph N/A   Clear
3:35 PM 51.8 °F - 19.4 °F 28% 29.95 in 10.0 mi West 21.9 mph 44.9 mph N/A   Clear
3:55 PM 51.8 °F - 19.4 °F 28% 29.96 in 10.0 mi West 34.5 mph 47.2 mph N/A   Clear
4:15 PM 50.0 °F - 19.4 °F 30% 29.97 in 10.0 mi West 33.4 mph 46.0 mph N/A   Clear
4:55 PM 50.0 °F - 19.4 °F 30% 29.98 in 10.0 mi West 23.0 mph 38.0 mph N/A   Clear
5:15 PM 48.2 °F - 19.4 °F 32% 29.99 in 10.0 mi West 18.4 mph 39.1 mph N/A   Clear
5:35 PM 48.2 °F - 19.4 °F 32% 29.99 in 10.0 mi West 19.6 mph 35.7 mph N/A   Clear
5:55 PM 46.4 °F 41.1 °F 21.2 °F 37% 30.00 in 10.0 mi WSW 11.5 mph 19.6 mph N/A   Clear
6:15 PM 44.6 °F 39.2 °F 21.2 °F 39% 30.00 in 10.0 mi WSW 10.4 mph 23.0 mph N/A   Clear
6:35 PM 44.6 °F 39.2 °F 23.0 °F 43% 30.01 in 10.0 mi SW 10.4 mph - N/A   Clear
6:55 PM 42.8 °F 37.0 °F 23.0 °F 46% 30.02 in 10.0 mi SW 10.4 mph - N/A   Clear
7:15 PM 42.8 °F 38.6 °F 23.0 °F 46% 30.03 in 10.0 mi SW 6.9 mph - N/A   Clear
7:35 PM 42.8 °F 38.0 °F 23.0 °F 46% 30.04 in 10.0 mi SW 8.1 mph - N/A   Clear
7:55 PM 39.2 °F 35.9 °F 24.8 °F 56% 30.04 in 10.0 mi SSW 4.6 mph - N/A   Clear
8:15 PM 39.2 °F 34.2 °F 24.8 °F 56% 30.04 in 10.0 mi SW 6.9 mph - N/A   Clear
8:35 PM 39.2 °F 34.2 °F 24.8 °F 56% 30.05 in 10.0 mi SW 6.9 mph - N/A   Clear
9:15 PM 37.4 °F 32.8 °F 26.6 °F 65% 30.06 in 10.0 mi WSW 5.8 mph - N/A   Clear
9:35 PM 37.4 °F 30.8 °F 26.6 °F 65% 30.06 in 10.0 mi SW 9.2 mph - N/A   Clear
9:55 PM 37.4 °F 30.8 °F 26.6 °F 65% 30.06 in 10.0 mi SW 9.2 mph - N/A   Clear
10:15 PM 37.4 °F 29.3 °F 26.6 °F 65% 30.06 in 10.0 mi SW 12.7 mph 17.3 mph N/A   Clear
10:35 PM 37.4 °F 28.5 °F 26.6 °F 65% 30.07 in 10.0 mi SW 15.0 mph - N/A   Clear
10:55 PM 37.4 °F 27.8 °F 26.6 °F 65% 30.08 in 10.0 mi SW 17.3 mph 23.0 mph N/A   Clear
11:15 PM 39.2 °F 29.6 °F 26.6 °F 61% 30.08 in 10.0 mi SW 19.6 mph 26.5 mph N/A   Clear
11:35 PM 39.2 °F 28.5 °F 24.8 °F 56% 30.08 in 10.0 mi SW 24.2 mph 31.1 mph N/A   Clear
11:55 PM 39.2 °F 29.3 °F 24.8 °F 56% 30.08 in 10.0 mi SW 20.7 mph 32.2 mph N/A   Clear